User: anonymous   Login
Location: Unspecified
(0.0000°N, 0.0000°E)
Time: 03:30:48
(UTC+00:00)
Language:

GALILEO-FM4 - Orbit

View from above orbital plane
View from above orbital plane
View from above satellite
View from above satellite

Ground track
Ground track

The orbit data is extracted from the following two-line orbital elements,

1 38858U 12055B   17346.51188281 +.00000078 +00000-0 +00000-0 0  9995
2 38858 054.9050 187.0974 0000644 177.9497 182.1178 01.70473873032161
Epoch (UTC): 12 December 2017 12:17:06
Eccentricity: 0.0000644
inclination: 54.9050°
perigee height: 23220 km
apogee height: 23224 km
right ascension of ascending node: 187.0974°
argument of perigee: 177.9497°
revolutions per day: 1.70473873
mean anomaly at epoch: 182.1178°
orbit number at epoch: 3216

The dashed part of the orbit path shows where the satellite is in the earth's shadow,  

DLR